Tracking 18796 objects as of 21-September-2017
HD Live streaming from Space Station
objects crossing your sky now

USA 142

Track USA 142 now!
USA 142 is classified as:


NORAD ID: 25669
Int'l Code: 1999-017A
Perigee: 577.5 km
Apogee: 34,761.7 km
Inclination: 28.9 °
Period: 618.3 minutes
Semi major axis: 24040 km
RCS: Unknown
Launch date: April 9, 1999
Source: United States (US)
Launch site: AIR FORCE EASTERN TEST RANGE (AFETR)
aabbcc
Your satellite tracking list
Your tracking list is empty





NASA's NSSDC Master Catalog

Two Line Element Set (TLE):
1 25669U 99017A   17187.63350721 0.00000000  00000-0  00000-0 0    08
2 25669  28.9103 110.7887 7109699 133.1472 314.1044  2.32908274    01
Source of the keplerian elements: McCants